TimeEDT,TemperatureF,Dew PointF,Humidity,Sea Level PressureIn,VisibilityMPH,Wind Direction,Wind SpeedMPH,Gust SpeedMPH,PrecipitationIn,Events,Conditions,WindDirDegrees,DateUTC
12:54 AM,57.9,55.9,93,29.86,10.0,Calm,Calm,-,N/A,,Clear,0,2013-09-01 04:54:00
1:54 AM,57.9,55.9,93,29.85,8.0,Calm,Calm,-,N/A,,Clear,0,2013-09-01 05:54:00
2:14 AM,55.4,55.4,100,29.85,1.8,Calm,Calm,-,N/A,,Clear,0,2013-09-01 06:14:00
2:23 AM,57.2,55.4,94,29.84,3.0,Calm,Calm,-,N/A,,Clear,0,2013-09-01 06:23:00
2:54 AM,55.9,55.0,97,29.83,7.0,Calm,Calm,-,N/A,,Clear,0,2013-09-01 06:54:00
3:25 AM,55.4,53.6,94,29.82,1.5,Calm,Calm,-,N/A,,Clear,0,2013-09-01 07:25:00
3:34 AM,55.4,53.6,94,29.82,0.5,Calm,Calm,-,N/A,Fog,Fog,0,2013-09-01 07:34:00
3:42 AM,55.4,53.6,94,29.82,2.0,Calm,Calm,-,N/A,,Clear,0,2013-09-01 07:42:00
3:49 AM,55.4,53.6,94,29.82,6.0,Calm,Calm,-,N/A,,Clear,0,2013-09-01 07:49:00
3:51 AM,55.4,53.6,94,29.82,2.5,Calm,Calm,-,N/A,,Partly Cloudy,0,2013-09-01 07:51:00
3:54 AM,55.0,54.0,96,29.82,1.2,Calm,Calm,-,N/A,,Scattered Clouds,0,2013-09-01 07:54:00
4:02 AM,55.4,53.6,94,29.82,2.5,Calm,Calm,-,N/A,,Mostly Cloudy,0,2013-09-01 08:02:00
4:09 AM,55.4,53.6,94,29.82,5.0,Calm,Calm,-,N/A,,Mostly Cloudy,0,2013-09-01 08:09:00
4:20 AM,55.4,53.6,94,29.82,1.8,Calm,Calm,-,N/A,,Overcast,0,2013-09-01 08:20:00
4:32 AM,55.4,53.6,94,29.82,0.5,Calm,Calm,-,N/A,Fog,Fog,0,2013-09-01 08:32:00
4:42 AM,55.4,53.6,94,29.82,2.0,Calm,Calm,-,N/A,,Mostly Cloudy,0,2013-09-01 08:42:00
4:51 AM,55.4,53.6,94,29.82,4.0,Calm,Calm,-,N/A,,Scattered Clouds,0,2013-09-01 08:51:00
4:54 AM,55.0,54.0,96,29.82,6.0,Calm,Calm,-,N/A,,Scattered Clouds,0,2013-09-01 08:54:00
4:59 AM,55.4,53.6,94,29.82,1.0,Calm,Calm,-,N/A,,Mist,0,2013-09-01 08:59:00
5:06 AM,55.4,53.6,94,29.81,0.2,Calm,Calm,-,N/A,Fog,Fog,0,2013-09-01 09:06:00
5:20 AM,57.2,55.4,94,29.82,0.8,South,3.5,-,N/A,,Mist,190,2013-09-01 09:20:00
5:26 AM,57.2,57.2,100,29.82,2.0,Calm,Calm,-,N/A,,Mostly Cloudy,0,2013-09-01 09:26:00
5:36 AM,57.2,57.2,100,29.81,3.0,SSE,3.5,-,N/A,,Mostly Cloudy,150,2013-09-01 09:36:00
5:54 AM,57.0,55.0,93,29.80,1.5,Calm,Calm,-,N/A,,Scattered Clouds,0,2013-09-01 09:54:00
6:03 AM,57.2,55.4,94,29.80,4.0,Calm,Calm,-,N/A,,Partly Cloudy,0,2013-09-01 10:03:00
6:23 AM,55.4,55.4,100,29.79,1.5,Calm,Calm,-,N/A,,Clear,0,2013-09-01 10:23:00
6:52 AM,55.4,53.6,94,29.79,0.5,Calm,Calm,-,N/A,Fog,Fog,0,2013-09-01 10:52:00
6:54 AM,55.9,54.0,93,29.79,0.2,Calm,Calm,-,N/A,Fog,Fog,0,2013-09-01 10:54:00
7:18 AM,55.4,53.6,94,29.80,1.2,Calm,Calm,-,N/A,,Overcast,0,2013-09-01 11:18:00
7:37 AM,57.2,55.4,94,29.79,3.0,Calm,Calm,-,N/A,,Mostly Cloudy,0,2013-09-01 11:37:00
7:39 AM,57.2,55.4,94,29.79,2.5,Calm,Calm,-,N/A,,Scattered Clouds,0,2013-09-01 11:39:00
7:47 AM,59.0,57.2,94,29.79,3.0,Calm,Calm,-,N/A,,Partly Cloudy,0,2013-09-01 11:47:00
7:54 AM,59.0,57.9,96,29.79,4.0,Calm,Calm,-,N/A,,Partly Cloudy,0,2013-09-01 11:54:00
8:44 AM,62.6,60.8,94,29.81,5.0,Calm,Calm,-,N/A,,Mostly Cloudy,0,2013-09-01 12:44:00
8:54 AM,63.0,61.0,93,29.81,5.0,Variable,3.5,-,N/A,,Mostly Cloudy,0,2013-09-01 12:54:00
9:09 AM,64.4,62.6,94,29.82,7.0,Calm,Calm,-,N/A,,Mostly Cloudy,0,2013-09-01 13:09:00
9:54 AM,66.0,63.0,90,29.81,8.0,SE,4.6,-,N/A,,Partly Cloudy,130,2013-09-01 13:54:00
10:54 AM,68.0,63.0,84,29.81,10.0,SSE,5.8,-,N/A,,Scattered Clouds,150,2013-09-01 14:54:00
11:54 AM,69.1,63.0,81,29.79,10.0,SE,8.1,-,N/A,,Clear,140,2013-09-01 15:54:00
12:54 PM,71.1,64.0,78,29.76,10.0,SE,8.1,-,N/A,,Mostly Cloudy,140,2013-09-01 16:54:00
1:54 PM,73.0,63.0,71,29.79,10.0,Calm,Calm,-,N/A,,Mostly Cloudy,0,2013-09-01 17:54:00
2:54 PM,71.1,66.0,84,29.78,6.0,Calm,Calm,-,0.03,Rain,Light Rain,0,2013-09-01 18:54:00
3:54 PM,70.0,66.9,90,29.72,10.0,SE,6.9,-,0.04,Rain,Light Rain,130,2013-09-01 19:54:00
4:54 PM,70.0,66.0,87,29.70,10.0,Calm,Calm,-,0.00,Rain,Light Rain,0,2013-09-01 20:54:00
5:54 PM,73.0,64.9,76,29.72,10.0,Variable,3.5,-,N/A,,Mostly Cloudy,0,2013-09-01 21:54:00
6:54 PM,73.9,64.9,73,29.68,10.0,South,5.8,-,N/A,,Clear,190,2013-09-01 22:54:00
7:54 PM,70.0,64.9,84,29.70,10.0,Variable,3.5,-,N/A,,Clear,0,2013-09-01 23:54:00
8:54 PM,70.0,64.0,81,29.72,7.0,SW,6.9,-,0.02,Rain,Light Rain,230,2013-09-02 00:54:00
9:05 PM,66.2,62.6,88,29.74,3.0,NW,16.1,27.6,0.11,Rain,Heavy Rain,320,2013-09-02 01:05:00
9:11 PM,66.2,62.6,88,29.74,4.0,NW,13.8,24.2,0.11,Rain,Light Rain,310,2013-09-02 01:11:00
9:36 PM,66.2,62.6,88,29.75,10.0,WNW,13.8,23.0,0.11,,Overcast,300,2013-09-02 01:36:00
9:54 PM,64.9,61.0,87,29.75,10.0,WNW,16.1,20.7,0.11,,Overcast,300,2013-09-02 01:54:00
10:40 PM,64.4,60.8,88,29.76,10.0,WNW,12.7,-,N/A,,Overcast,290,2013-09-02 02:40:00
10:54 PM,63.0,60.1,90,29.75,10.0,NW,13.8,-,N/A,,Overcast,310,2013-09-02 02:54:00
11:54 PM,60.1,57.0,90,29.76,10.0,WNW,11.5,-,N/A,,Overcast,300,2013-09-02 03:54:00